Tracking 19193 objects as of 22-Jun-2018
HD Live streaming from Space Station
objects crossing your sky now

YZ-1 R/B

Track YZ-1 R/B now!


NORAD ID: 43210
Int'l Code: 2018-018D
Perigee: 22,197.6 km
Apogee: 22,354.1 km
Inclination: 54.8 °
Period: 804.2 minutes
Semi major axis: 28646 km
RCS: Unknown
Launch date: February 12, 2018
Source: People's Republic of China (PRC)
Launch site: Xichang Space Center, China (XSC)

Note: This is a ROCKET BODY
aabbcc
Your satellite tracking list
Your tracking list is empty




NASA's NSSDC Master Catalog

Two Line Element Set (TLE):
1 43210U 18018D   18172.93073915  .00000060  00000-0  00000+0 0  9999
2 43210  54.8125 160.9718 0027328  70.2743 290.0131  1.79055587  2324
Source of the keplerian elements: AFSPC